Location: *
(50.8160°S, 176.0219°W)
Time: 03:16:46
(UTC+00:00)

NOAA 6 - Pass Details

Date: 19 May 2026
Orbit: 767 x 780 km, 98.6° (Epoch: 8 June)

Event Time Altitude Azimuth Distance (km) Brightness Sun altitude
Rises 18:13:16 0° 22° (NNE) 3,263 7.9 -10.3°
Reaches altitude 10° 18:15:34 10° 23° (NNE) 2,341 7.1 -10.0°
Maximum altitude 18:20:44 78° 107° (ESE) 813 4.3 -9.2°
Drops below altitude 10° 18:25:57 10° 193° (SSW) 2,363 6.2 -8.5°
Sets 18:28:17 0° 193° (SSW) 3,295 6.9 -8.1°
